| time (UTC) | temp C | wind direction | speed KPH | gust KPH | rain 1hr cm | rain 24hr cm | rain mn cm | humidity % | barometer mb |
| 20260831080000 | 7 | 142 | 0.0 | 0.0 | 0.00 | 0.00 | 0.00 | 69 | 1014.4 |
| 20260831075455 | 7 | 129 | 0.0 | 0.0 | 0.00 | 0.00 | 0.00 | 70 | 1014.6 |
| 20260831074950 | 7 | 129 | 0.0 | 0.0 | 0.00 | 0.00 | 0.00 | 70 | 1014.7 |
| 20260831074444 | 7 | 128 | 0.0 | 0.0 | 0.00 | 0.00 | 0.00 | 70 | 1014.5 |
| 20260831073938 | 7 | 129 | 0.0 | 0.0 | 0.00 | 0.00 | 0.00 | 70 | 1014.5 |
| 20260831073433 | 7 | 128 | 0.0 | 0.0 | 0.00 | 0.00 | 0.00 | 70 | 1014.4 |
| 20260831072927 | 7 | 128 | 0.0 | 0.0 | 0.00 | 0.00 | 0.00 | 70 | 1014.6 |
| 20260831072423 | 8 | 125 | 0.0 | 0.0 | 0.00 | 0.00 | 0.00 | 66 | 1014.6 |
| 20260831071920 | 8 | 122 | 0.0 | 0.0 | 0.00 | 0.00 | 0.00 | 65 | 1014.6 |
| 20260831071418 | 8 | 119 | 0.0 | 0.0 | 0.00 | 0.00 | 0.00 | 63 | 1014.7 |
| 20260831070918 | 8 | 123 | 0.0 | 0.0 | 0.00 | 0.00 | 0.00 | 62 | 1014.7 |
| 20260831070417 | 8 | 103 | 1.6 | 1.6 | 0.00 | 0.00 | 0.00 | 63 | 1014.3 |
| 20260831065917 | 8 | 136 | 0.0 | 0.0 | 0.00 | 0.00 | 0.00 | 64 | 1014.5 |
| 20260831065415 | 8 | 130 | 0.0 | 0.0 | 0.00 | 0.00 | 0.00 | 61 | 1014.6 |
| 20260831064910 | 9 | 145 | 0.0 | 0.0 | 0.00 | 0.00 | 0.00 | 60 | 1014.4 |
| 20260831064405 | 9 | 148 | 0.0 | 0.0 | 0.00 | 0.00 | 0.00 | 59 | 1014.4 |
| 20260831063901 | 9 | 144 | 0.0 | 0.0 | 0.00 | 0.00 | 0.00 | 59 | 1014.4 |
| 20260831063355 | 9 | 144 | 0.0 | 0.0 | 0.00 | 0.00 | 0.00 | 59 | 1014.4 |
| 20260831062850 | 9 | 94 | 0.0 | 0.0 | 0.00 | 0.00 | 0.00 | 60 | 1014.3 |
| 20260831062345 | 9 | 101 | 0.0 | 0.0 | 0.00 | 0.00 | 0.00 | 59 | 1014.5 |
| 20260831061843 | 9 | 146 | 0.0 | 0.0 | 0.00 | 0.00 | 0.00 | 58 | 1014.2 |
| 20260831061342 | 9 | 110 | 0.0 | 0.0 | 0.00 | 0.00 | 0.00 | 58 | 1014.4 |
| 20260831060839 | 10 | 113 | 0.0 | 0.0 | 0.00 | 0.00 | 0.00 | 58 | 1014.6 |
| 20260831060334 | 10 | 115 | 0.0 | 0.0 | 0.00 | 0.00 | 0.00 | 57 | 1014.6 |
| 20260831055833 | 10 | 132 | 0.0 | 0.0 | 0.00 | 0.00 | 0.00 | 56 | 1014.7 |
| 20260831055328 | 10 | 134 | 0.0 | 0.0 | 0.00 | 0.00 | 0.00 | 57 | 1014.7 |
| 20260831054823 | 10 | 145 | 0.0 | 0.0 | 0.00 | 0.00 | 0.00 | 59 | 1014.5 |
| 20260831054319 | 10 | 145 | 0.0 | 0.0 | 0.00 | 0.00 | 0.00 | 56 | 1014.4 |
| 20260831053817 | 10 | 151 | 0.0 | 0.0 | 0.00 | 0.00 | 0.00 | 55 | 1014.5 |
| 20260831053311 | 11 | 143 | 0.0 | 0.0 | 0.00 | 0.00 | 0.00 | 54 | 1014.6 |
| 20260831052805 | 11 | 112 | 0.0 | 0.0 | 0.00 | 0.00 | 0.00 | 54 | 1014.7 |
| 20260831052306 | 11 | 146 | 0.0 | 0.0 | 0.00 | 0.00 | 0.00 | 55 | 1014.6 |
| 20260831051802 | 11 | 146 | 0.0 | 0.0 | 0.00 | 0.00 | 0.00 | 55 | 1014.6 |
| 20260831051256 | 11 | 147 | 0.0 | 0.0 | 0.00 | 0.00 | 0.00 | 54 | 1014.7 |
| 20260831050751 | 11 | 121 | 0.0 | 0.0 | 0.00 | 0.00 | 0.00 | 53 | 1014.8 |
| 20260831050250 | 12 | 132 | 0.0 | 0.0 | 0.00 | 0.00 | 0.00 | 53 | 1014.6 |
| 20260831045744 | 12 | 141 | 0.0 | 0.0 | 0.00 | 0.00 | 0.00 | 51 | 1014.5 |
| 20260831045238 | 12 | 139 | 0.0 | 0.0 | 0.00 | 0.00 | 0.00 | 51 | 1014.7 |
| 20260831044733 | 12 | 138 | 0.0 | 0.0 | 0.00 | 0.00 | 0.00 | 51 | 1014.6 |
| 20260831044223 | 12 | 154 | 0.0 | 0.0 | 0.00 | 0.00 | 0.00 | 51 | 1014.5 |
| 20260831043719 | 13 | 140 | 0.0 | 0.0 | 0.00 | 0.00 | 0.00 | 49 | 1014.5 |
| 20260831043213 | 13 | 140 | 0.0 | 0.0 | 0.00 | 0.00 | 0.00 | 48 | 1014.6 |
| 20260831042713 | 13 | 139 | 0.0 | 0.0 | 0.00 | 0.00 | 0.00 | 48 | 1014.4 |
| 20260831042208 | 14 | 190 | 3.2 | 3.2 | 0.00 | 0.00 | 0.00 | 47 | 1014.7 |
| 20260831041702 | 13 | 158 | 0.0 | 0.0 | 0.00 | 0.00 | 0.00 | 47 | 1014.7 |
| 20260831041156 | 14 | 150 | 0.0 | 0.0 | 0.00 | 0.00 | 0.00 | 47 | 1014.5 |
| 20260831040652 | 14 | 105 | 0.0 | 0.0 | 0.00 | 0.00 | 0.00 | 46 | 1014.4 |
| 20260831040150 | 15 | 151 | 0.0 | 0.0 | 0.00 | 0.00 | 0.00 | 45 | 1014.3 |
| 20260831035649 | 15 | 151 | 0.0 | 0.0 | 0.00 | 0.00 | 0.00 | 44 | 1014.6 |
| 20260831035144 | 15 | 156 | 0.0 | 0.0 | 0.00 | 0.00 | 0.00 | 43 | 1014.5 |
| 20260831034643 | 16 | 145 | 0.0 | 0.0 | 0.00 | 0.00 | 0.00 | 43 | 1014.2 |
| 20260831034138 | 16 | 130 | 0.0 | 0.0 | 0.00 | 0.00 | 0.00 | 42 | 1014.3 |
| 20260831033634 | 16 | 150 | 0.0 | 0.0 | 0.00 | 0.00 | 0.00 | 41 | 1013.9 |
| 20260831033129 | 16 | 154 | 0.0 | 0.0 | 0.00 | 0.00 | 0.00 | 40 | 1014.2 |
| 20260831032628 | 16 | 154 | 0.0 | 0.0 | 0.00 | 0.00 | 0.00 | 39 | 1014.0 |
| 20260831032124 | 16 | 124 | 0.0 | 0.0 | 0.00 | 0.00 | 0.00 | 41 | 1013.9 |
| 20260831031619 | 16 | 123 | 0.0 | 0.0 | 0.00 | 0.00 | 0.00 | 40 | 1013.8 |
| 20260831031118 | 17 | 159 | 1.6 | 1.6 | 0.00 | 0.00 | 0.00 | 41 | 1013.7 |
| 20260831030617 | 17 | 150 | 0.0 | 0.0 | 0.00 | 0.00 | 0.00 | 39 | 1013.6 |
| 20260831030116 | 17 | 137 | 0.0 | 0.0 | 0.00 | 0.00 | 0.00 | 38 | 1013.7 |
| 20260831025615 | 18 | 163 | 0.0 | 0.0 | 0.00 | 0.00 | 0.00 | 37 | 1013.5 |
| 20260831025110 | 18 | 145 | 0.0 | 0.0 | 0.00 | 0.00 | 0.00 | 36 | 1013.6 |
| 20260831024606 | 18 | 111 | 0.0 | 0.0 | 0.00 | 0.00 | 0.00 | 35 | 1013.2 |
| 20260831024104 | 18 | 204 | 0.0 | 1.6 | 0.00 | 0.00 | 0.00 | 36 | 1013.4 |
| 20260831023603 | 19 | 112 | 0.0 | 0.0 | 0.00 | 0.00 | 0.00 | 35 | 1013.4 |
| 20260831023102 | 20 | 100 | 1.6 | 1.6 | 0.00 | 0.00 | 0.00 | 34 | 1013.2 |
| 20260831022557 | 20 | 109 | 3.2 | 3.2 | 0.00 | 0.00 | 0.00 | 34 | 1013.3 |
| 20260831022052 | 20 | 102 | 0.0 | 1.6 | 0.00 | 0.00 | 0.00 | 34 | 1013.2 |
| 20260831021551 | 20 | 87 | 1.6 | 1.6 | 0.00 | 0.00 | 0.00 | 34 | 1013.1 |
| 20260831021047 | 20 | 85 | 1.6 | 1.6 | 0.00 | 0.00 | 0.00 | 33 | 1013.0 |
| 20260831020542 | 21 | 32 | 3.2 | 4.8 | 0.00 | 0.00 | 0.00 | 32 | 1013.4 |
| 20260831020037 | 21 | 101 | 1.6 | 3.2 | 0.00 | 0.00 | 0.00 | 31 | 1013.1 |
| 20260831015532 | 21 | 65 | 1.6 | 3.2 | 0.00 | 0.00 | 0.00 | 31 | 1013.1 |
| 20260831015022 | 22 | 88 | 0.0 | 1.6 | 0.00 | 0.00 | 0.00 | 29 | 1013.4 |
| 20260831014522 | 22 | 217 | 1.6 | 1.6 | 0.00 | 0.00 | 0.00 | 29 | 1013.4 |
| 20260831014018 | 23 | 258 | 4.8 | 6.4 | 0.00 | 0.00 | 0.00 | 29 | 1013.3 |
| 20260831013514 | 23 | 155 | 0.0 | 1.6 | 0.00 | 0.00 | 0.00 | 28 | 1013.2 |
| 20260831013014 | 23 | 103 | 1.6 | 3.2 | 0.00 | 0.00 | 0.00 | 28 | 1013.3 |
| 20260831012508 | 23 | 180 | 1.6 | 1.6 | 0.00 | 0.00 | 0.00 | 27 | 1013.3 |
| 20260831012003 | 23 | 66 | 3.2 | 3.2 | 0.00 | 0.00 | 0.00 | 27 | 1013.5 |
| 20260831011457 | 23 | 211 | 3.2 | 3.2 | 0.00 | 0.00 | 0.00 | 27 | 1013.3 |
| 20260831010953 | 23 | 71 | 1.6 | 1.6 | 0.00 | 0.00 | 0.00 | 27 | 1013.2 |
| 20260831010453 | 23 | 164 | 1.6 | 3.2 | 0.00 | 0.00 | 0.00 | 26 | 1013.4 |
| 20260831005949 | 23 | 315 | 4.8 | 4.8 | 0.00 | 0.00 | 0.00 | 26 | 1013.2 |
| 20260831005445 | 24 | 203 | 3.2 | 4.8 | 0.00 | 0.00 | 0.00 | 25 | 1013.3 |
| 20260831004944 | 23 | 291 | 6.4 | 6.4 | 0.00 | 0.00 | 0.00 | 25 | 1013.3 |
| 20260831004440 | 25 | 173 | 4.8 | 4.8 | 0.00 | 0.00 | 0.00 | 25 | 1013.4 |
| 20260831003936 | 25 | 118 | 1.6 | 1.6 | 0.00 | 0.00 | 0.00 | 24 | 1013.2 |
| 20260831003432 | 25 | 213 | 0.0 | 1.6 | 0.00 | 0.00 | 0.00 | 24 | 1013.3 |
| 20260831002931 | 25 | 156 | 0.0 | 1.6 | 0.00 | 0.00 | 0.00 | 24 | 1013.2 |
| 20260831002430 | 25 | 176 | 1.6 | 3.2 | 0.00 | 0.00 | 0.00 | 24 | 1013.3 |
| 20260831001926 | 25 | 142 | 0.0 | 0.0 | 0.00 | 0.00 | 0.00 | 24 | 1013.5 |
| 20260831001421 | 23 | 155 | 0.0 | 0.0 | 0.00 | 0.00 | 0.00 | 25 | 1013.4 |
| 20260831000919 | 25 | 254 | 3.2 | 4.8 | 0.00 | 0.00 | 0.00 | 25 | 1013.3 |
| 20260831000414 | 24 | 135 | 0.0 | 0.0 | 0.00 | 0.00 | 0.00 | 25 | 1013.3 |
| 20260830235912 | 24 | 324 | 3.2 | 4.8 | 0.00 | 0.00 | 0.00 | 25 | 1013.3 |
| 20260830235407 | 24 | 156 | 4.8 | 4.8 | 0.00 | 0.00 | 0.00 | 25 | 1013.5 |
| 20260830234903 | 25 | 161 | 3.2 | 3.2 | 0.00 | 0.00 | 0.00 | 25 | 1013.2 |
| 20260830234357 | 23 | 167 | 3.2 | 4.8 | 0.00 | 0.00 | 0.00 | 27 | 1013.3 |
| 20260830233853 | 24 | 185 | 8.0 | 11.3 | 0.00 | 0.00 | 0.00 | 26 | 1013.4 |
| 20260830233348 | 25 | 168 | 3.2 | 4.8 | 0.00 | 0.00 | 0.00 | 25 | 1013.4 |
| 20260830232844 | 24 | 152 | 3.2 | 4.8 | 0.00 | 0.00 | 0.00 | 26 | 1013.6 |
| 20260830232339 | 24 | 206 | 4.8 | 6.4 | 0.00 | 0.00 | 0.00 | 26 | 1013.7 |
| 20260830231836 | 24 | 222 | 4.8 | 4.8 | 0.00 | 0.00 | 0.00 | 25 | 1013.7 |
| 20260830231336 | 24 | 227 | 6.4 | 6.4 | 0.00 | 0.00 | 0.00 | 26 | 1013.6 |
| 20260830230830 | 23 | 269 | 9.7 | 11.3 | 0.00 | 0.00 | 0.00 | 25 | 1013.7 |
| 20260830230325 | 23 | 173 | 1.6 | 3.2 | 0.00 | 0.00 | 0.00 | 27 | 1013.4 |
| 20260830225819 | 24 | 163 | 3.2 | 3.2 | 0.00 | 0.00 | 0.00 | 25 | 1013.7 |
| 20260830225314 | 24 | 182 | 3.2 | 3.2 | 0.00 | 0.00 | 0.00 | 25 | 1013.8 |
| 20260830224809 | 25 | 185 | 3.2 | 3.2 | 0.00 | 0.00 | 0.00 | 27 | 1013.9 |
| 20260830224303 | 24 | 247 | 4.8 | 4.8 | 0.00 | 0.00 | 0.00 | 27 | 1013.9 |
| 20260830223800 | 23 | 175 | 9.7 | 11.3 | 0.00 | 0.00 | 0.00 | 28 | 1013.7 |
| 20260830223255 | 23 | 173 | 9.7 | 12.9 | 0.00 | 0.00 | 0.00 | 29 | 1014.0 |
| 20260830222749 | 23 | 145 | 1.6 | 3.2 | 0.00 | 0.00 | 0.00 | 29 | 1013.9 |
| 20260830222246 | 23 | 175 | 4.8 | 6.4 | 0.00 | 0.00 | 0.00 | 28 | 1013.9 |
| 20260830221740 | 23 | 172 | 6.4 | 6.4 | 0.00 | 0.00 | 0.00 | 29 | 1014.2 |
| 20260830221238 | 23 | 142 | 1.6 | 1.6 | 0.00 | 0.00 | 0.00 | 29 | 1014.2 |
| 20260830220733 | 22 | 171 | 0.0 | 1.6 | 0.00 | 0.00 | 0.00 | 30 | 1014.2 |
| 20260830220231 | 22 | 138 | 3.2 | 6.4 | 0.00 | 0.00 | 0.00 | 30 | 1014.2 |
| 20260830215730 | 23 | 163 | 1.6 | 3.2 | 0.00 | 0.00 | 0.00 | 30 | 1014.5 |
| 20260830215225 | 22 | 189 | 0.0 | 0.0 | 0.00 | 0.00 | 0.00 | 30 | 1014.5 |
| 20260830214720 | 22 | 143 | 8.0 | 11.3 | 0.00 | 0.00 | 0.00 | 31 | 1014.6 |
| 20260830214215 | 22 | 67 | 4.8 | 4.8 | 0.00 | 0.00 | 0.00 | 31 | 1014.5 |
| 20260830213714 | 22 | 161 | 4.8 | 6.4 | 0.00 | 0.00 | 0.00 | 32 | 1014.7 |
| 20260830213209 | 22 | 162 | 6.4 | 9.7 | 0.00 | 0.00 | 0.00 | 31 | 1014.7 |
| 20260830212700 | 23 | 215 | 3.2 | 3.2 | 0.00 | 0.00 | 0.00 | 30 | 1015.0 |
| 20260830212155 | 23 | 150 | 3.2 | 4.8 | 0.00 | 0.00 | 0.00 | 32 | 1014.9 |
| 20260830211654 | 22 | 144 | 4.8 | 4.8 | 0.00 | 0.00 | 0.00 | 31 | 1014.7 |
| 20260830211153 | 22 | 177 | 4.8 | 4.8 | 0.00 | 0.00 | 0.00 | 33 | 1015.0 |
| 20260830210649 | 22 | 129 | 1.6 | 3.2 | 0.00 | 0.00 | 0.00 | 32 | 1015.0 |
| 20260830210148 | 21 | 151 | 3.2 | 6.4 | 0.00 | 0.00 | 0.00 | 32 | 1015.0 |
| 20260830205646 | 22 | 157 | 4.8 | 6.4 | 0.00 | 0.00 | 0.00 | 32 | 1015.1 |
| 20260830205141 | 21 | 150 | 4.8 | 4.8 | 0.00 | 0.00 | 0.00 | 32 | 1015.1 |
| 20260830204641 | 21 | 162 | 1.6 | 1.6 | 0.00 | 0.00 | 0.00 | 33 | 1015.6 |
| 20260830204140 | 22 | 137 | 3.2 | 4.8 | 0.00 | 0.00 | 0.00 | 32 | 1015.3 |
| 20260830203636 | 21 | 152 | 3.2 | 4.8 | 0.00 | 0.00 | 0.00 | 33 | 1015.1 |
| 20260830203131 | 21 | 138 | 4.8 | 4.8 | 0.00 | 0.00 | 0.00 | 33 | 1015.2 |
| 20260830202630 | 21 | 127 | 0.0 | 0.0 | 0.00 | 0.00 | 0.00 | 34 | 1015.3 |
| 20260830202126 | 21 | 205 | 1.6 | 4.8 | 0.00 | 0.00 | 0.00 | 32 | 1015.2 |
| 20260830201625 | 20 | 176 | 8.0 | 9.7 | 0.00 | 0.00 | 0.00 | 34 | 1015.3 |
| 20260830201121 | 20 | 232 | 4.8 | 4.8 | 0.00 | 0.00 | 0.00 | 35 | 1015.6 |
| 20260830200616 | 20 | 151 | 6.4 | 6.4 | 0.00 | 0.00 | 0.00 | 36 | 1015.5 |
| 20260830200115 | 20 | 141 | 1.6 | 3.2 | 0.00 | 0.00 | 0.00 | 36 | 1015.5 |
| 20260830195611 | 20 | 163 | 0.0 | 1.6 | 0.00 | 0.00 | 0.00 | 37 | 1015.7 |
| 20260830195108 | 19 | 110 | 3.2 | 4.8 | 0.00 | 0.00 | 0.00 | 38 | 1015.7 |
| 20260830194608 | 20 | 236 | 6.4 | 11.3 | 0.00 | 0.00 | 0.00 | 37 | 1015.7 |
| 20260830194103 | 20 | 172 | 8.0 | 11.3 | 0.00 | 0.00 | 0.00 | 37 | 1015.8 |
| 20260830193602 | 19 | 176 | 1.6 | 3.2 | 0.00 | 0.00 | 0.00 | 38 | 1015.6 |
| 20260830193057 | 18 | 233 | 6.4 | 6.4 | 0.00 | 0.00 | 0.00 | 39 | 1015.8 |
| 20260830192553 | 20 | 224 | 4.8 | 4.8 | 0.00 | 0.00 | 0.00 | 36 | 1015.9 |
| 20260830192052 | 19 | 194 | 8.0 | 11.3 | 0.00 | 0.00 | 0.00 | 38 | 1016.0 |
| 20260830191548 | 18 | 207 | 6.4 | 9.7 | 0.00 | 0.00 | 0.00 | 40 | 1016.0 |
| 20260830191043 | 19 | 144 | 9.7 | 11.3 | 0.00 | 0.00 | 0.00 | 40 | 1016.1 |
| 20260830190538 | 18 | 101 | 1.6 | 3.2 | 0.00 | 0.00 | 0.00 | 39 | 1016.1 |
| 20260830190028 | 18 | 279 | 1.6 | 3.2 | 0.00 | 0.00 | 0.00 | 40 | 1016.2 |
| 20260830185522 | 18 | 147 | 12.9 | 12.9 | 0.00 | 0.00 | 0.00 | 40 | 1016.3 |
| 20260830185018 | 18 | 147 | 3.2 | 4.8 | 0.00 | 0.00 | 0.00 | 39 | 1016.3 |
| 20260830184516 | 17 | 125 | 4.8 | 6.4 | 0.00 | 0.00 | 0.00 | 41 | 1016.2 |
| 20260830184005 | 18 | 202 | 3.2 | 3.2 | 0.00 | 0.00 | 0.00 | 40 | 1016.3 |
| 20260830183500 | 18 | 141 | 3.2 | 6.4 | 0.00 | 0.00 | 0.00 | 42 | 1016.3 |
| 20260830182955 | 18 | 106 | 1.6 | 1.6 | 0.00 | 0.00 | 0.00 | 41 | 1016.4 |
| 20260830182450 | 18 | 173 | 3.2 | 4.8 | 0.00 | 0.00 | 0.00 | 42 | 1016.5 |
| 20260830181946 | 18 | 157 | 9.7 | 11.3 | 0.00 | 0.00 | 0.00 | 42 | 1016.4 |
| 20260830181442 | 17 | 150 | 3.2 | 3.2 | 0.00 | 0.00 | 0.00 | 41 | 1016.5 |
| 20260830180936 | 16 | 191 | 1.6 | 3.2 | 0.00 | 0.00 | 0.00 | 43 | 1016.8 |
| 20260830180435 | 17 | 264 | 4.8 | 9.7 | 0.00 | 0.00 | 0.00 | 42 | 1016.6 |
| 20260830175934 | 17 | 170 | 3.2 | 4.8 | 0.00 | 0.00 | 0.00 | 44 | 1016.5 |
| 20260830175429 | 17 | 162 | 3.2 | 6.4 | 0.00 | 0.00 | 0.00 | 44 | 1016.6 |
| 20260830174924 | 16 | 175 | 6.4 | 9.7 | 0.00 | 0.00 | 0.00 | 46 | 1016.6 |
| 20260830174419 | 16 | 136 | 1.6 | 1.6 | 0.00 | 0.00 | 0.00 | 45 | 1016.8 |
| 20260830173915 | 15 | 105 | 3.2 | 4.8 | 0.00 | 0.00 | 0.00 | 47 | 1016.8 |
| 20260830173410 | 16 | 141 | 3.2 | 4.8 | 0.00 | 0.00 | 0.00 | 46 | 1016.9 |
| 20260830172906 | 15 | 160 | 1.6 | 4.8 | 0.00 | 0.00 | 0.00 | 49 | 1016.9 |
| 20260830172402 | 16 | 163 | 6.4 | 9.7 | 0.00 | 0.00 | 0.00 | 48 | 1017.0 |
| 20260830171857 | 15 | 123 | 1.6 | 3.2 | 0.00 | 0.00 | 0.00 | 49 | 1017.0 |
| 20260830171353 | 16 | 240 | 6.4 | 6.4 | 0.00 | 0.00 | 0.00 | 49 | 1017.1 |
| 20260830170848 | 15 | 142 | 1.6 | 1.6 | 0.00 | 0.00 | 0.00 | 50 | 1017.1 |
| 20260830170347 | 13 | 277 | 6.4 | 9.7 | 0.00 | 0.00 | 0.00 | 54 | 1017.0 |
| 20260830165845 | 14 | 203 | 3.2 | 3.2 | 0.00 | 0.00 | 0.00 | 53 | 1017.1 |
| 20260830165342 | 14 | 255 | 4.8 | 4.8 | 0.00 | 0.00 | 0.00 | 53 | 1017.2 |
| 20260830164838 | 14 | 198 | 3.2 | 4.8 | 0.00 | 0.00 | 0.00 | 54 | 1017.1 |
| 20260830164328 | 14 | 333 | 3.2 | 4.8 | 0.00 | 0.00 | 0.00 | 54 | 1017.0 |
| 20260830163825 | 14 | 117 | 0.0 | 0.0 | 0.00 | 0.00 | 0.00 | 53 | 1017.1 |
| 20260830163320 | 13 | 106 | 1.6 | 1.6 | 0.00 | 0.00 | 0.00 | 57 | 1017.2 |
| 20260830162814 | 13 | 140 | 3.2 | 4.8 | 0.00 | 0.00 | 0.00 | 57 | 1017.3 |
| 20260830162311 | 13 | 161 | 6.4 | 9.7 | 0.00 | 0.00 | 0.00 | 58 | 1017.3 |
| 20260830161806 | 12 | 121 | 0.0 | 0.0 | 0.00 | 0.00 | 0.00 | 58 | 1017.2 |
| 20260830161305 | 12 | 120 | 0.0 | 0.0 | 0.00 | 0.00 | 0.00 | 60 | 1017.2 |
| 20260830160801 | 12 | 115 | 1.6 | 1.6 | 0.00 | 0.00 | 0.00 | 61 | 1017.3 |
| 20260830160301 | 11 | 123 | 1.6 | 1.6 | 0.00 | 0.00 | 0.00 | 61 | 1017.4 |
| 20260830155756 | 12 | 116 | 3.2 | 3.2 | 0.00 | 0.00 | 0.00 | 61 | 1017.3 |
| 20260830155253 | 11 | 134 | 0.0 | 0.0 | 0.00 | 0.00 | 0.00 | 64 | 1017.4 |
| 20260830154747 | 10 | 121 | 0.0 | 0.0 | 0.00 | 0.00 | 0.00 | 64 | 1017.4 |
| 20260830154243 | 10 | 111 | 1.6 | 1.6 | 0.00 | 0.00 | 0.00 | 65 | 1017.3 |
| 20260830153739 | 10 | 117 | 0.0 | 0.0 | 0.00 | 0.00 | 0.00 | 67 | 1017.4 |
| 20260830153235 | 8 | 139 | 0.0 | 0.0 | 0.00 | 0.00 | 0.00 | 70 | 1017.4 |
| 20260830152733 | 8 | 61 | 3.2 | 3.2 | 0.00 | 0.00 | 0.00 | 70 | 1017.4 |
| 20260830152228 | 8 | 133 | 0.0 | 0.0 | 0.00 | 0.00 | 0.00 | 73 | 1017.5 |
| 20260830151723 | 7 | 150 | 0.0 | 0.0 | 0.00 | 0.00 | 0.00 | 73 | 1017.4 |
| 20260830151222 | 8 | 121 | 0.0 | 0.0 | 0.00 | 0.00 | 0.00 | 72 | 1017.4 |
| 20260830150717 | 7 | 121 | 1.6 | 1.6 | 0.00 | 0.00 | 0.00 | 73 | 1017.5 |
| 20260830150212 | 7 | 144 | 0.0 | 0.0 | 0.00 | 0.00 | 0.00 | 74 | 1017.4 |
| 20260830145711 | 7 | 136 | 0.0 | 0.0 | 0.00 | 0.00 | 0.00 | 73 | 1017.5 |
| 20260830145207 | 7 | 139 | 0.0 | 0.0 | 0.00 | 0.00 | 0.00 | 74 | 1017.5 |
| 20260830144701 | 5 | 139 | 0.0 | 0.0 | 0.00 | 0.00 | 0.00 | 79 | 1017.4 |
| 20260830144158 | 5 | 137 | 0.0 | 0.0 | 0.00 | 0.00 | 0.00 | 79 | 1017.3 |
| 20260830143653 | 5 | 138 | 0.0 | 0.0 | 0.00 | 0.00 | 0.00 | 81 | 1017.3 |
| 20260830143151 | 4 | 133 | 0.0 | 0.0 | 0.00 | 0.00 | 0.00 | 82 | 1017.4 |
| 20260830142647 | 4 | 140 | 1.6 | 1.6 | 0.00 | 0.00 | 0.00 | 83 | 1017.5 |
| 20260830142142 | 4 | 142 | 0.0 | 0.0 | 0.00 | 0.00 | 0.00 | 83 | 1017.2 |
| 20260830141637 | 3 | 143 | 0.0 | 0.0 | 0.00 | 0.00 | 0.00 | 85 | 1017.4 |
| 20260830141132 | 3 | 116 | 0.0 | 0.0 | 0.00 | 0.00 | 0.00 | 86 | 1017.3 |
| 20260830140627 | 3 | 116 | 0.0 | 0.0 | 0.00 | 0.00 | 0.00 | 87 | 1017.4 |
| 20260830140121 | 2 | 116 | 0.0 | 0.0 | 0.00 | 0.00 | 0.00 | 87 | 1017.3 |
| 20260830135622 | 3 | 115 | 0.0 | 0.0 | 0.00 | 0.00 | 0.00 | 86 | 1017.3 |
| 20260830135117 | 3 | 111 | 0.0 | 0.0 | 0.00 | 0.00 | 0.00 | 86 | 1017.4 |
| 20260830134613 | 2 | 99 | 1.6 | 1.6 | 0.00 | 0.00 | 0.00 | 87 | 1017.2 |
| 20260830134108 | 2 | 119 | 0.0 | 0.0 | 0.00 | 0.00 | 0.00 | 90 | 1017.2 |
| 20260830133603 | 1 | 119 | 0.0 | 0.0 | 0.00 | 0.00 | 0.00 | 90 | 1017.3 |
| 20260830133058 | 1 | 120 | 0.0 | 0.0 | 0.00 | 0.00 | 0.00 | 90 | 1017.2 |
| 20260830132554 | 1 | 120 | 0.0 | 0.0 | 0.00 | 0.00 | 0.00 | 90 | 1016.8 |
| 20260830132049 | 1 | 120 | 0.0 | 0.0 | 0.00 | 0.00 | 0.00 | 90 | 1017.1 |
| 20260830131548 | 1 | 119 | 0.0 | 0.0 | 0.00 | 0.00 | 0.00 | 90 | 1017.2 |
| 20260830131043 | 1 | 118 | 0.0 | 0.0 | 0.00 | 0.00 | 0.00 | 90 | 1016.9 |
| 20260830130538 | 1 | 118 | 0.0 | 0.0 | 0.00 | 0.00 | 0.00 | 90 | 1016.9 |
| 20260830130033 | 1 | 118 | 0.0 | 0.0 | 0.00 | 0.00 | 0.00 | 89 | 1016.9 |
| 20260830125528 | 1 | 118 | 0.0 | 0.0 | 0.00 | 0.00 | 0.00 | 89 | 1016.6 |
| 20260830125027 | 2 | 118 | 0.0 | 0.0 | 0.00 | 0.00 | 0.00 | 89 | 1017.0 |
| 20260830124526 | 2 | 117 | 0.0 | 0.0 | 0.00 | 0.00 | 0.00 | 89 | 1016.8 |
| 20260830124022 | 2 | 117 | 0.0 | 0.0 | 0.00 | 0.00 | 0.00 | 88 | 1016.6 |
| 20260830123519 | 2 | 117 | 0.0 | 0.0 | 0.00 | 0.00 | 0.00 | 88 | 1016.6 |
| 20260830123014 | 2 | 105 | 1.6 | 1.6 | 0.00 | 0.00 | 0.00 | 87 | 1016.8 |
| 20260830122510 | 2 | 106 | 0.0 | 0.0 | 0.00 | 0.00 | 0.00 | 87 | 1016.8 |
| 20260830122006 | 2 | 140 | 0.0 | 0.0 | 0.00 | 0.00 | 0.00 | 87 | 1016.5 |
| 20260830121502 | 2 | 149 | 0.0 | 0.0 | 0.00 | 0.00 | 0.00 | 86 | 1016.8 |
| 20260830121001 | 2 | 181 | 0.0 | 0.0 | 0.00 | 0.00 | 0.00 | 87 | 1016.6 |
| 20260830120456 | 2 | 115 | 0.0 | 0.0 | 0.00 | 0.00 | 0.00 | 87 | 1016.6 |
| 20260830115953 | 2 | 114 | 0.0 | 0.0 | 0.00 | 0.00 | 0.00 | 87 | 1016.5 |
| 20260830115449 | 2 | 113 | 0.0 | 0.0 | 0.00 | 0.00 | 0.00 | 87 | 1016.3 |
| 20260830114944 | 2 | 117 | 0.0 | 0.0 | 0.00 | 0.00 | 0.00 | 87 | 1016.5 |
| 20260830114441 | 2 | 112 | 0.0 | 0.0 | 0.00 | 0.00 | 0.00 | 86 | 1016.2 |
| 20260830113940 | 2 | 94 | 1.6 | 1.6 | 0.00 | 0.00 | 0.00 | 86 | 1016.6 |
| 20260830113435 | 3 | 110 | 0.0 | 1.6 | 0.00 | 0.00 | 0.00 | 85 | 1016.4 |
| 20260830112931 | 3 | 150 | 0.0 | 0.0 | 0.00 | 0.00 | 0.00 | 86 | 1016.3 |
| 20260830112427 | 3 | 114 | 0.0 | 0.0 | 0.00 | 0.00 | 0.00 | 86 | 1016.5 |
| 20260830111923 | 3 | 113 | 0.0 | 0.0 | 0.00 | 0.00 | 0.00 | 85 | 1016.3 |
| 20260830111418 | 3 | 113 | 0.0 | 0.0 | 0.00 | 0.00 | 0.00 | 85 | 1016.5 |
| 20260830110914 | 3 | 94 | 1.6 | 1.6 | 0.00 | 0.00 | 0.00 | 85 | 1016.2 |
| 20260830110409 | 3 | 134 | 0.0 | 0.0 | 0.00 | 0.00 | 0.00 | 84 | 1016.3 |
| 20260830105908 | 3 | 146 | 0.0 | 0.0 | 0.00 | 0.00 | 0.00 | 84 | 1016.3 |
| 20260830105405 | 3 | 146 | 0.0 | 0.0 | 0.00 | 0.00 | 0.00 | 84 | 1016.3 |
| 20260830104901 | 3 | 146 | 0.0 | 0.0 | 0.00 | 0.00 | 0.00 | 83 | 1016.3 |
| 20260830104357 | 3 | 148 | 0.0 | 0.0 | 0.00 | 0.00 | 0.00 | 82 | 1016.2 |
| 20260830103856 | 3 | 139 | 0.0 | 0.0 | 0.00 | 0.00 | 0.00 | 83 | 1016.0 |
| 20260830103353 | 3 | 117 | 0.0 | 0.0 | 0.00 | 0.00 | 0.00 | 83 | 1016.2 |
| 20260830102850 | 3 | 117 | 0.0 | 0.0 | 0.00 | 0.00 | 0.00 | 82 | 1016.0 |
| 20260830102346 | 3 | 116 | 0.0 | 0.0 | 0.00 | 0.00 | 0.00 | 82 | 1016.2 |
| 20260830101843 | 4 | 118 | 0.0 | 0.0 | 0.00 | 0.00 | 0.00 | 82 | 1016.2 |
| 20260830101337 | 4 | 121 | 0.0 | 0.0 | 0.00 | 0.00 | 0.00 | 82 | 1016.1 |
| 20260830100837 | 4 | 120 | 0.0 | 0.0 | 0.00 | 0.00 | 0.00 | 82 | 1016.1 |
| 20260830100336 | 4 | 123 | 0.0 | 0.0 | 0.00 | 0.00 | 0.00 | 81 | 1016.3 |
| 20260830095835 | 4 | 129 | 0.0 | 0.0 | 0.00 | 0.00 | 0.00 | 81 | 1016.1 |
| 20260830095331 | 5 | 150 | 0.0 | 0.0 | 0.00 | 0.00 | 0.00 | 80 | 1016.1 |
| 20260830094827 | 4 | 117 | 0.0 | 0.0 | 0.00 | 0.00 | 0.00 | 81 | 1016.1 |
| 20260830094323 | 5 | 119 | 0.0 | 0.0 | 0.00 | 0.00 | 0.00 | 79 | 1016.0 |
| 20260830093818 | 5 | 318 | 1.6 | 1.6 | 0.00 | 0.00 | 0.00 | 79 | 1016.0 |
| 20260830093314 | 5 | 309 | 1.6 | 1.6 | 0.00 | 0.00 | 0.00 | 77 | 1016.0 |
| 20260830092813 | 5 | 144 | 0.0 | 1.6 | 0.00 | 0.00 | 0.00 | 78 | 1016.1 |
| 20260830092311 | 5 | 134 | 0.0 | 1.6 | 0.00 | 0.00 | 0.00 | 77 | 1016.2 |
| 20260830091807 | 5 | 160 | 0.0 | 1.6 | 0.00 | 0.00 | 0.00 | 76 | 1015.9 |
| 20260830091306 | 6 | 120 | 0.0 | 1.6 | 0.00 | 0.00 | 0.00 | 76 | 1015.9 |
| 20260830090805 | 6 | 138 | 0.0 | 0.0 | 0.00 | 0.00 | 0.00 | 75 | 1016.1 |
| 20260830090301 | 6 | 122 | 0.0 | 0.0 | 0.00 | 0.00 | 0.00 | 74 | 1015.9 |
| 20260830085800 | 6 | 147 | 0.0 | 0.0 | 0.00 | 0.00 | 0.00 | 74 | 1015.9 |
| 20260830085255 | 6 | 149 | 0.0 | 0.0 | 0.00 | 0.00 | 0.00 | 74 | 1016.1 |
| 20260830084751 | 6 | 154 | 1.6 | 1.6 | 0.00 | 0.00 | 0.00 | 74 | 1015.9 |
| 20260830084246 | 6 | 144 | 0.0 | 0.0 | 0.00 | 0.00 | 0.00 | 75 | 1016.1 |
| 20260830083741 | 6 | 143 | 0.0 | 0.0 | 0.00 | 0.00 | 0.00 | 75 | 1016.1 |
| 20260830083238 | 6 | 172 | 1.6 | 1.6 | 0.00 | 0.00 | 0.00 | 75 | 1015.9 |
| 20260830082737 | 6 | 90 | 1.6 | 1.6 | 0.00 | 0.00 | 0.00 | 75 | 1015.9 |
| 20260830082233 | 6 | 143 | 0.0 | 0.0 | 0.00 | 0.00 | 0.00 | 74 | 1015.9 |
| 20260830081728 | 7 | 151 | 0.0 | 1.6 | 0.00 | 0.00 | 0.00 | 73 | 1015.9 |
| 20260830081227 | 7 | 162 | 0.0 | 0.0 | 0.00 | 0.00 | 0.00 | 72 | 1015.8 |
| 20260830080722 | 7 | 98 | 1.6 | 1.6 | 0.00 | 0.00 | 0.00 | 72 | 1016.1 |